Orbital Elements at Epoch 2459200.5 (2020-Dec-17.0) TDB
Reference: JPL 34 (heliocentric ecliptic J2000)
Element | Value | Uncertainty (1-sigma) | Units |
e | .1672712342493504 | 3.9035e-08 | |
a | 2.551418306635847 | 9.7946e-09 | au |
q | 2.124639417398481 | 9.8302e-08 | au |
i | 14.39338150838464 | 3.9014e-06 | deg |
node | 111.4916871894476 | 1.7829e-05 | deg |
peri | 193.5909463448938 | 2.205e-05 | deg |
M | 142.9925175989517 | 1.3833e-05 | deg |
tp | 2458609.235588083574 (2019-May-05.73558808) | 5.6918e-05 | TDB |
period | 1488.575709163357 4.08 | 8.5717e-06 2.347e-08 | d yr |
n | .2418419149149862 | 1.3926e-09 | deg/d |
Q | 2.978197195873213 | 1.1433e-08 | au |
|
| | Orbit Determination Parameters
Additional Information
|